Weather in Puerto Madryn

Argentina     42°45′26″S   65°04′40″W
temp.,
°C
wind,
m/s
gust,
m/s
humid.,
%
clouds,
%
prec.,
mm/h
press.,
hPa
HPBL,
m
16 may, mon
mon1600:00+9s566951 0.0 1031521
03:00+9s347213 0.0 1031406
06:00+8s337336 0.0 1032415
09:00+8s127414 0.0 1032398
12:00+11e336219 0.0 1032868
15:00+11ene44620 0.0 1032734
18:00+10ene44665 0.0 1031298
21:00+10nne45680 0.0 1032310
17 may, tue
tue1700:00+9nne57750 0.0 1032318
03:00+8nne57770 0.0 1032301
06:00+8nne57820 0.0 1031258
09:00+8n68835 0.0 1031268
12:00+12nne88625 0.0 1032703
15:00+13nne895325 0.0 1030711
18:00+11nne811665 0.0 1028375
21:00+10nne913695 0.0 1028366
18 may, wed
wed1800:00+11n1016580 0.0 1027441
03:00+10n11185323 0.0 1024418
06:00+9n12195479 0.0 1022394
09:00+9n121955100 0.0 1022406
12:00+13n13194099 0.0 1020569
15:00+17n13162652 0.0 1017725
18:00+14n13193460 0.0 1016470
21:00+12nnw132039100 0.0 1016482
19 may, thu
thu1900:00+12nnw12194097 0.0 1014504
03:00+11nnw11174188 0.0 1013407
06:00+10nnw91441100 0.0 1012243
09:00+10nnw6104298 0.0 1012161
12:00+14nnw6734100 0.0 1011321
15:00+18nw452996 0.0 1009414
18:00+15sw443393 0.0 100925
21:00+14nw2234100 0.0 100911
20 may, fri
fri2000:00+14nw4434100 0.0 100827
03:00+14nw5545100 0.0 100846
06:00+14nw57441 0.0 100762
09:00+16nw10193872 0.0 1008294
12:00+18wnw121741100 0.0 1009673
15:00+19w1416280 0.0 10081029
18:00+17w913330 0.0 1010226
21:00+15w712430 0.0 1013195